RYR9465 EDLV-LDPL

Flight info

Callsign RYR9465
Flight time 1h 22m
Altitude 39000
Route ERKUM1S/27 ERKUM L179 MEVEL Z841 GMH DCT NEGIX DCT DINKU M867 XERUM DCT BAVAX DCT RADIZ DCT VEKEN DCT GIRDA
Aircraft B38M/M-SDE1FGHILORVWXY/HB1

Departure

Time 2026-04-26 16:33
Airport Weeze (Niederrhein) Airport (EDLV)

Arrival

Time 2026-04-26 17:55
Airport Pula Airport (LDPL)
Time Latitude Longitude Altitude Speed Heading
2026-04-26 16:11 51.59999 6.14727 113 ft 0 kts 272°
2026-04-26 16:24 51.59998 6.14734 113 ft 3 kts 272°
2026-04-26 16:24 51.60000 6.14776 111 ft 4 kts 252°
2026-04-26 16:24 51.60012 6.14800 111 ft 3 kts 186°
2026-04-26 16:24 51.60031 6.14799 112 ft 4 kts 152°
2026-04-26 16:25 51.60044 6.14770 113 ft 4 kts 101°
2026-04-26 16:25 51.60046 6.14745 111 ft 0 kts 92°
2026-04-26 16:28 51.60045 6.14768 113 ft 4 kts 92°
2026-04-26 16:28 51.60044 6.14824 113 ft 6 kts 92°
2026-04-26 16:28 51.60042 6.14892 115 ft 7 kts 92°
2026-04-26 16:29 51.60040 6.14991 115 ft 11 kts 92°
2026-04-26 16:29 51.60037 6.15152 117 ft 18 kts 91°
2026-04-26 16:29 51.60032 6.15386 118 ft 21 kts 92°
2026-04-26 16:29 51.60027 6.15643 117 ft 24 kts 92°
2026-04-26 16:30 51.60021 6.15885 118 ft 15 kts 87°
2026-04-26 16:30 51.60097 6.15948 116 ft 12 kts
2026-04-26 16:30 51.60107 6.15948 117 ft 0 kts
2026-04-26 16:31 51.60119 6.15949 117 ft 4 kts
2026-04-26 16:31 51.60179 6.15953 115 ft 13 kts
2026-04-26 16:32 51.60210 6.15890 116 ft 0 kts 272°
2026-04-26 16:32 51.60221 6.15388 120 ft 88 kts 272°
2026-04-26 16:32 51.60255 6.13979 118 ft 160 kts 272°
2026-04-26 16:33 51.60300 6.12007 599 ft 186 kts 275°
2026-04-26 16:33 51.60566 6.09934 1465 ft 195 kts 294°
2026-04-26 16:33 51.61375 6.08091 2102 ft 214 kts 316°
2026-04-26 16:33 51.62590 6.06564 2829 ft 220 kts 341°
2026-04-26 16:34 51.64063 6.06186 3859 ft 222 kts
2026-04-26 16:34 51.65565 6.06858 4250 ft 227 kts 28°
2026-04-26 16:34 51.66782 6.08474 5013 ft 229 kts 41°
2026-04-26 16:34 51.67842 6.10499 5735 ft 248 kts 58°
2026-04-26 16:35 51.68557 6.13159 6341 ft 269 kts 68°
2026-04-26 16:35 51.69299 6.16013 7104 ft 276 kts 61°
2026-04-26 16:35 51.70133 6.18776 8055 ft 280 kts 62°
2026-04-26 16:35 51.70877 6.21731 8909 ft 289 kts 75°
2026-04-26 16:36 51.70899 6.25012 9823 ft 298 kts 100°
2026-04-26 16:36 51.70319 6.28250 10585 ft 307 kts 105°
2026-04-26 16:36 51.69671 6.31616 11062 ft 326 kts 105°
2026-04-26 16:36 51.68957 6.35251 11485 ft 345 kts 106°
2026-04-26 16:37 51.68211 6.38989 12059 ft 357 kts 106°
2026-04-26 16:37 51.67447 6.42792 12887 ft 360 kts 107°
2026-04-26 16:37 51.66667 6.46659 13693 ft 365 kts 107°
2026-04-26 16:37 51.66142 6.49257 14219 ft 368 kts 107°
2026-04-26 16:38 51.65077 6.54511 15181 ft 373 kts 107°
2026-04-26 16:38 51.64274 6.58465 15890 ft 377 kts 107°
2026-04-26 16:38 51.63455 6.62499 16601 ft 381 kts 107°
2026-04-26 16:38 51.62978 6.66705 17285 ft 382 kts 89°
2026-04-26 16:39 51.63365 6.70921 17951 ft 383 kts 70°
2026-04-26 16:39 51.64550 6.74759 18569 ft 383 kts 53°
2026-04-26 16:39 51.66077 6.78253 19097 ft 387 kts 52°
2026-04-26 16:39 51.67658 6.81799 19637 ft 392 kts 52°
2026-04-26 16:40 51.69270 6.85369 20197 ft 395 kts 51°
2026-04-26 16:40 51.70899 6.88948 20776 ft 398 kts 51°
2026-04-26 16:40 51.72494 6.92640 21326 ft 403 kts 59°
2026-04-26 16:40 51.73395 6.96951 21936 ft 410 kts 81°
2026-04-26 16:41 51.73304 7.01506 22471 ft 417 kts 100°
2026-04-26 16:41 51.72377 7.05968 22996 ft 422 kts 117°
2026-04-26 16:41 51.70715 7.09881 23535 ft 425 kts 130°
2026-04-26 16:41 51.68858 7.13624 23997 ft 430 kts 128°
2026-04-26 16:42 51.67036 7.17453 24471 ft 432 kts 127°
2026-04-26 16:42 51.65824 7.20016 24795 ft 434 kts 127°
2026-04-26 16:42 51.63989 7.23908 25243 ft 438 kts 127°
2026-04-26 16:42 51.61541 7.29103 25861 ft 441 kts 127°
2026-04-26 16:43 51.59678 7.33053 26294 ft 445 kts 127°
2026-04-26 16:43 51.58411 7.35735 26604 ft 447 kts 127°
2026-04-26 16:43 51.56543 7.39683 27020 ft 450 kts 127°
2026-04-26 16:43 51.54643 7.43692 27452 ft 453 kts 127°
2026-04-26 16:44 51.52726 7.47730 27877 ft 456 kts 127°
2026-04-26 16:44 51.50788 7.51807 28309 ft 459 kts 127°
2026-04-26 16:44 51.48841 7.55894 28722 ft 462 kts 127°
2026-04-26 16:44 51.46899 7.59965 29119 ft 465 kts 127°
2026-04-26 16:45 51.44921 7.64104 29515 ft 468 kts 127°
2026-04-26 16:45 51.42934 7.68254 29899 ft 471 kts 127°
2026-04-26 16:45 51.40925 7.72408 30335 ft 472 kts 130°
2026-04-26 16:45 51.38557 7.76038 30707 ft 472 kts 146°
2026-04-26 16:46 51.35668 7.78524 31022 ft 472 kts 160°
2026-04-26 16:46 51.32620 7.80341 31286 ft 474 kts 161°
2026-04-26 16:46 51.29512 7.82165 31591 ft 476 kts 161°
2026-04-26 16:46 51.26377 7.83964 31896 ft 479 kts 162°
2026-04-26 16:47 51.23233 7.85740 32214 ft 481 kts 162°
2026-04-26 16:47 51.20067 7.87516 32556 ft 482 kts 162°
2026-04-26 16:47 51.16919 7.89372 32987 ft 482 kts 156°
2026-04-26 16:47 51.13935 7.91788 33453 ft 481 kts 154°
2026-04-26 16:48 51.10984 7.94197 33887 ft 480 kts 154°
2026-04-26 16:48 51.08020 7.96623 34310 ft 479 kts 154°
2026-04-26 16:48 51.05057 7.99048 34672 ft 478 kts 154°
2026-04-26 16:48 51.02090 8.01473 35001 ft 478 kts 154°
2026-04-26 16:49 50.99134 8.03887 35339 ft 477 kts 154°
2026-04-26 16:49 50.96180 8.06295 35711 ft 476 kts 154°
2026-04-26 16:49 50.93231 8.08696 36099 ft 474 kts 154°
2026-04-26 16:49 50.90329 8.11055 36418 ft 474 kts 154°
2026-04-26 16:50 50.87394 8.13437 36722 ft 474 kts 154°
2026-04-26 16:50 50.84460 8.15816 37020 ft 473 kts 154°
2026-04-26 16:50 50.81525 8.18193 37313 ft 473 kts 154°
2026-04-26 16:50 50.78594 8.20561 37593 ft 473 kts 154°
2026-04-26 16:51 50.75662 8.22928 37879 ft 472 kts 155°
2026-04-26 16:51 50.72737 8.25286 38158 ft 472 kts 155°
2026-04-26 16:51 50.69806 8.27645 38430 ft 472 kts 155°
2026-04-26 16:51 50.66901 8.29981 38678 ft 471 kts 155°
2026-04-26 16:52 50.63967 8.32336 38924 ft 471 kts 155°
2026-04-26 16:52 50.62027 8.33890 39052 ft 471 kts 155°
2026-04-26 16:52 50.58114 8.37023 39241 ft 472 kts 155°
2026-04-26 16:52 50.55210 8.39345 39256 ft 472 kts 155°
2026-04-26 16:53 50.49358 8.44012 39245 ft 469 kts 155°
2026-04-26 16:53 50.43557 8.48628 39253 ft 470 kts 155°
2026-04-26 16:54 50.37854 8.53658 39208 ft 471 kts 140°
2026-04-26 16:54 50.33252 8.60984 39222 ft 474 kts 135°
2026-04-26 16:55 50.28736 8.68432 39228 ft 474 kts 134°
2026-04-26 16:55 50.24220 8.75956 39232 ft 474 kts 134°
2026-04-26 16:56 50.17430 8.87245 39231 ft 474 kts 134°
2026-04-26 16:57 50.12928 8.94704 39232 ft 474 kts 134°
2026-04-26 16:57 50.06120 9.05940 39216 ft 474 kts 134°
2026-04-26 16:58 50.02349 9.12143 39223 ft 474 kts 134°
2026-04-26 16:59 49.94812 9.24495 39223 ft 474 kts 134°
2026-04-26 17:00 49.85705 9.39341 39220 ft 474 kts 134°
2026-04-26 17:00 49.78888 9.50395 39218 ft 474 kts 134°
2026-04-26 17:01 49.74331 9.57760 39224 ft 474 kts 134°
2026-04-26 17:01 49.69770 9.65109 39224 ft 474 kts 135°
2026-04-26 17:02 49.65221 9.72417 39228 ft 474 kts 135°
2026-04-26 17:02 49.60637 9.79759 39232 ft 474 kts 135°
2026-04-26 17:03 49.56062 9.87068 39234 ft 474 kts 135°
2026-04-26 17:03 49.51504 9.94327 39237 ft 473 kts 135°
2026-04-26 17:04 49.46908 10.01626 39237 ft 473 kts 135°
2026-04-26 17:04 49.42317 10.08897 39237 ft 473 kts 135°
2026-04-26 17:05 49.37757 10.16098 39238 ft 473 kts 135°
2026-04-26 17:05 49.33154 10.23348 39243 ft 473 kts 135°
2026-04-26 17:06 49.28548 10.30584 39229 ft 474 kts 135°
2026-04-26 17:06 49.23883 10.37728 39233 ft 472 kts 143°
2026-04-26 17:07 49.18390 10.42984 39235 ft 471 kts 150°
2026-04-26 17:07 49.12795 10.48163 39266 ft 471 kts 150°
2026-04-26 17:08 49.07172 10.53278 39261 ft 470 kts 151°
2026-04-26 17:08 49.01550 10.58373 39250 ft 470 kts 151°
2026-04-26 17:09 48.96877 10.62596 39262 ft 469 kts 151°
2026-04-26 17:09 48.90333 10.68496 39252 ft 470 kts 151°
2026-04-26 17:10 48.84700 10.73559 39241 ft 470 kts 151°
2026-04-26 17:10 48.79542 10.79598 39227 ft 470 kts 132°
2026-04-26 17:11 48.75093 10.86943 39213 ft 473 kts 133°
2026-04-26 17:11 48.70687 10.94283 39226 ft 473 kts 133°
2026-04-26 17:12 48.64042 11.05376 39211 ft 473 kts 133°
2026-04-26 17:13 48.57411 11.16401 39210 ft 473 kts 133°
2026-04-26 17:14 48.50774 11.27390 39197 ft 473 kts 133°
2026-04-26 17:14 48.44113 11.38374 39204 ft 472 kts 134°
2026-04-26 17:15 48.37464 11.49290 39209 ft 472 kts 134°
2026-04-26 17:16 48.33017 11.56566 39210 ft 473 kts 134°
2026-04-26 17:16 48.28555 11.63851 39209 ft 473 kts 134°
2026-04-26 17:17 48.23850 11.70701 39220 ft 470 kts 140°
2026-04-26 17:17 48.19028 11.77279 39205 ft 471 kts 139°
2026-04-26 17:18 48.14182 11.83946 39209 ft 471 kts 139°
2026-04-26 17:18 48.09347 11.90588 39198 ft 471 kts 139°
2026-04-26 17:19 48.02124 12.00477 39176 ft 471 kts 139°
2026-04-26 17:19 47.97280 12.07088 39183 ft 470 kts 139°
2026-04-26 17:20 47.94078 12.11449 39187 ft 471 kts 139°
2026-04-26 17:20 47.87621 12.20218 39181 ft 471 kts 139°
2026-04-26 17:21 47.82776 12.26777 39182 ft 471 kts 140°
2026-04-26 17:21 47.77917 12.33339 39176 ft 471 kts 140°
2026-04-26 17:22 47.73066 12.39874 39166 ft 470 kts 140°
2026-04-26 17:22 47.68247 12.46347 39165 ft 470 kts 140°
2026-04-26 17:23 47.63381 12.52833 39167 ft 470 kts 143°
2026-04-26 17:23 47.60649 12.55411 39168 ft 463 kts 155°
2026-04-26 17:23 47.57804 12.57693 39151 ft 466 kts 153°
2026-04-26 17:24 47.52131 12.62336 39152 ft 466 kts 154°
2026-04-26 17:24 47.46470 12.66898 39168 ft 465 kts 154°
2026-04-26 17:25 47.40776 12.71470 39171 ft 465 kts 154°
2026-04-26 17:25 47.35082 12.76030 39170 ft 465 kts 154°
2026-04-26 17:26 47.29391 12.80577 39161 ft 465 kts 154°
2026-04-26 17:26 47.23741 12.85080 39159 ft 464 kts 154°
2026-04-26 17:27 47.18057 12.89598 39160 ft 464 kts 154°
2026-04-26 17:27 47.12378 12.94102 39133 ft 462 kts 154°
2026-04-26 17:28 47.06712 12.98584 39146 ft 462 kts 154°
2026-04-26 17:28 47.01077 13.03031 39134 ft 462 kts 154°
2026-04-26 17:29 46.97283 13.06019 39131 ft 462 kts 154°
2026-04-26 17:29 46.89764 13.11927 39125 ft 462 kts 154°
2026-04-26 17:30 46.84101 13.16364 39121 ft 462 kts 154°
2026-04-26 17:30 46.78431 13.20796 39116 ft 462 kts 154°
2026-04-26 17:31 46.73717 13.24471 39106 ft 462 kts 154°
2026-04-26 17:31 46.67087 13.29630 39105 ft 462 kts 155°
2026-04-26 17:32 46.62371 13.33292 39107 ft 462 kts 155°
2026-04-26 17:32 46.56692 13.37661 39096 ft 460 kts 157°
2026-04-26 17:33 46.50924 13.41704 39094 ft 460 kts 157°
2026-04-26 17:34 46.42300 13.47796 37707 ft 468 kts 157°
2026-04-26 17:34 46.39392 13.49848 37092 ft 461 kts 157°
2026-04-26 17:34 46.36492 13.51891 36231 ft 463 kts 157°
2026-04-26 17:34 46.33577 13.53943 35357 ft 468 kts 156°
2026-04-26 17:35 46.30645 13.56003 34585 ft 469 kts 156°
2026-04-26 17:35 46.27711 13.58063 33851 ft 469 kts 156°
2026-04-26 17:35 46.24764 13.60129 32997 ft 471 kts 156°
2026-04-26 17:35 46.21807 13.62200 32155 ft 472 kts 156°
2026-04-26 17:36 46.18852 13.64267 31375 ft 472 kts 156°
2026-04-26 17:36 46.15942 13.66300 30758 ft 469 kts 156°
2026-04-26 17:36 46.13009 13.68347 30178 ft 465 kts 156°
2026-04-26 17:36 46.10100 13.70374 29474 ft 462 kts 156°
2026-04-26 17:37 46.07208 13.72388 28827 ft 459 kts 156°
2026-04-26 17:37 46.04346 13.74378 28228 ft 455 kts 156°
2026-04-26 17:37 46.01505 13.76351 27632 ft 451 kts 155°
2026-04-26 17:38 45.95922 13.80223 26429 ft 445 kts 155°
2026-04-26 17:38 45.93139 13.82149 25844 ft 443 kts 155°
2026-04-26 17:38 45.90367 13.84065 25247 ft 440 kts 155°
2026-04-26 17:38 45.87614 13.85967 24667 ft 438 kts 155°
2026-04-26 17:39 45.84874 13.87857 24089 ft 436 kts 155°
2026-04-26 17:39 45.82138 13.89743 23476 ft 435 kts 155°
2026-04-26 17:39 45.79411 13.91620 22822 ft 432 kts 155°
2026-04-26 17:39 45.76713 13.93475 22241 ft 428 kts 155°
2026-04-26 17:40 45.74033 13.95316 21687 ft 424 kts 155°
2026-04-26 17:40 45.72269 13.96526 21319 ft 422 kts 155°
2026-04-26 17:40 45.68741 13.98946 20588 ft 417 kts 155°
2026-04-26 17:40 45.66179 14.00688 20045 ft 408 kts 157°
2026-04-26 17:41 45.63479 14.01841 19246 ft 402 kts 169°
2026-04-26 17:41 45.60781 14.02782 18470 ft 398 kts 166°
2026-04-26 17:41 45.58124 14.03804 17599 ft 394 kts 166°
2026-04-26 17:41 45.55494 14.04842 16750 ft 390 kts 165°
2026-04-26 17:42 45.52898 14.05884 15932 ft 386 kts 165°
2026-04-26 17:42 45.50325 14.06926 15144 ft 382 kts 165°
2026-04-26 17:42 45.47774 14.07962 14365 ft 380 kts 165°
2026-04-26 17:42 45.45239 14.08991 13584 ft 376 kts 165°
2026-04-26 17:43 45.42737 14.10006 12771 ft 373 kts 165°
2026-04-26 17:43 45.40272 14.11006 12221 ft 362 kts 165°
2026-04-26 17:43 45.37887 14.11972 11756 ft 350 kts 164°
2026-04-26 17:43 45.35591 14.12901 11303 ft 337 kts 164°
2026-04-26 17:44 45.33379 14.13795 10888 ft 324 kts 164°
2026-04-26 17:44 45.31250 14.14656 10548 ft 311 kts 164°
2026-04-26 17:44 45.29216 14.15477 10321 ft 296 kts 164°
2026-04-26 17:44 45.27261 14.16266 10146 ft 288 kts 164°
2026-04-26 17:45 45.25345 14.17038 9897 ft 284 kts 163°
2026-04-26 17:45 45.23448 14.17803 9550 ft 283 kts 163°
2026-04-26 17:45 45.21554 14.18565 9244 ft 282 kts 163°
2026-04-26 17:45 45.19677 14.19320 8935 ft 280 kts 163°
2026-04-26 17:46 45.17811 14.20070 8626 ft 277 kts 163°
2026-04-26 17:46 45.15962 14.20813 8341 ft 275 kts 163°
2026-04-26 17:46 45.14129 14.21549 8047 ft 273 kts 163°
2026-04-26 17:46 45.12306 14.22280 7743 ft 272 kts 163°
2026-04-26 17:47 45.10495 14.23006 7462 ft 270 kts 163°
2026-04-26 17:47 45.09304 14.23484 7273 ft 268 kts 163°
2026-04-26 17:47 45.06910 14.24443 6888 ft 266 kts 163°
2026-04-26 17:47 45.05153 14.25146 6609 ft 264 kts 163°
2026-04-26 17:48 45.03387 14.25853 6323 ft 262 kts 163°
2026-04-26 17:48 45.01622 14.26490 6020 ft 260 kts 171°
2026-04-26 17:48 44.99828 14.26611 5843 ft 255 kts 178°
2026-04-26 17:48 44.98087 14.26666 5713 ft 245 kts 177°
2026-04-26 17:49 44.96424 14.26724 5594 ft 234 kts 177°
2026-04-26 17:49 44.94835 14.26783 5468 ft 223 kts 176°
2026-04-26 17:49 44.93316 14.26840 5351 ft 213 kts 176°
2026-04-26 17:49 44.91871 14.26599 5159 ft 211 kts 200°
2026-04-26 17:50 44.90687 14.25365 4825 ft 217 kts 231°
2026-04-26 17:50 44.90096 14.23444 4529 ft 219 kts 258°
2026-04-26 17:50 44.89947 14.21278 4226 ft 220 kts 268°
2026-04-26 17:50 44.89915 14.19109 3930 ft 220 kts 268°
2026-04-26 17:51 44.89879 14.16981 3640 ft 216 kts 268°
2026-04-26 17:51 44.89836 14.14849 3324 ft 212 kts 268°
2026-04-26 17:51 44.89794 14.12800 3020 ft 204 kts 268°
2026-04-26 17:51 44.89751 14.10821 2738 ft 200 kts 268°
2026-04-26 17:52 44.89710 14.08868 2462 ft 198 kts 268°
2026-04-26 17:52 44.89670 14.06998 2210 ft 181 kts 268°
2026-04-26 17:52 44.89634 14.05327 1954 ft 166 kts 269°
2026-04-26 17:52 44.89599 14.03727 1726 ft 159 kts 269°
2026-04-26 17:53 44.89567 14.02206 1512 ft 152 kts 269°
2026-04-26 17:53 44.89539 14.00723 1260 ft 151 kts 269°
2026-04-26 17:53 44.89505 13.99259 1058 ft 149 kts 268°
2026-04-26 17:54 44.89447 13.96359 663 ft 143 kts 268°
2026-04-26 17:54 44.89413 13.94959 423 ft 144 kts 269°
2026-04-26 17:54 44.89384 13.93537 236 ft 141 kts 269°
2026-04-26 17:54 44.89359 13.92342 225 ft 93 kts 268°
2026-04-26 17:55 44.89340 13.91552 227 ft 71 kts 268°
2026-04-26 17:55 44.89328 13.90926 225 ft 60 kts 268°
2026-04-26 17:55 44.89318 13.90475 226 ft 19 kts 268°
2026-04-26 17:55 44.89370 13.90377 227 ft 12 kts 19°
2026-04-26 17:56 44.89442 13.90472 223 ft 17 kts 47°
2026-04-26 17:56 44.89544 13.90759 224 ft 17 kts 89°
2026-04-26 17:57 44.89552 13.91136 219 ft 21 kts 88°
2026-04-26 17:57 44.89557 13.91363 221 ft 24 kts 88°
2026-04-26 17:57 44.89562 13.91555 226 ft 17 kts 88°
2026-04-26 17:57 44.89564 13.91726 228 ft 20 kts 88°
2026-04-26 17:58 44.89577 13.92303 228 ft 16 kts 88°
2026-04-26 17:59 44.89613 13.92459 228 ft 9 kts
2026-04-26 17:59 44.89687 13.92457 229 ft 12 kts 359°
2026-04-26 17:59 44.89766 13.92453 230 ft 7 kts 348°
2026-04-26 17:59 44.89793 13.92401 229 ft 7 kts 303°
2026-04-26 18:00 44.89809 13.92393 229 ft 2 kts 27°
2026-04-26 18:00 44.89819 13.92406 230 ft 0 kts 44°